Dewpoint
3 3 3 3 3 3 3 3 2 1 1 1 -5 -11 -15 -20 -20 -19 -20 -20 -19 -19 -20 -21 -21 -21 -20
2 2 1 1 1 2 2 2 1 1 0 -2 -8 -16 -20 -21 -21 -20 -20 -21 -20 -20 -20 -21 -21 -20 -19
1 1 1 -0 -0 -1 -0 0 -0 -0 -0 -4 -11 -18 -23 -21 -21 -21 -20 -21 -21 -21 -20 -20 -19 -19 -19
-1 -1 -0 -1 -2 -2 -2 -2 -2 -2 -2 -6 -13 -22 -26 -22 -22 -22 -21 -21 -20 -19 -19 -18 -17 -16 -15
-4 -4 -3 -3 -2 -3 -4 -4 -4 -5 -10 -19 -24 -26 -25 -23 -22 -21 -21 -20 -19 -18 -14 -11 -10 -10 -11
-6 -5 -5 -5 -5 -5 -5 -5 -6 -7 -19 -24 -26 -25 -23 -22 -21 -20 -19 -19 -13 -10 -10 -10 -11 -12 -12
-7 -7 -6 -6 -6 -7 -7 -6 -6 -7 -15 -19 -25 -24 -22 -20 -19 -19 -15 -10 -9 -10 -11 -12 -12 -12 -13
-8 -7 -7 -7 -7 -7 -7 -7 -8 -9 -17 -21 -23 -24 -22 -19 -17 -13 -9 -9 -10 -10 -10 -11 -12 -12 -13
-15 -9 -8 -8 -8 -9 -8 -9 -9 -11 -15 -19 -21 -22 -22 -19 -12 -8 -9 -9 -9 -9 -11 -11 -12 -12 -11
-9 -12 -16 -13 -9 -9 -10 -10 -10 -10 -11 -16 -18 -19 -18 -15 -10 -9 -9 -8 -8 -9 -10 -11 -10 -9 -9
-11 -10 -9 -9 -12 -11 -10 -10 -10 -11 -12 -15 -18 -15 -10 -9 -9 -9 -9 -9 -9 -9 -8 -9 -11 -13 -14
-12 -11 -11 -11 -10 -10 -10 -10 -10 -10 -10 -10 -9 -9 -9 -8 -8 -9 -9 -9 -9 -10 -10 -10 -10 -12 -14
-13 -13 -13 -12 -11 -11 -11 -10 -10 -10 -9 -9 -9 -9 -10 -10 -10 -10 -10 -10 -11 -11 -11 -12 -12 -13 -15
-14 -14 -14 -14 -14 -13 -12 -12 -11 -11 -11 -11 -11 -11 -11 -11 -11 -11 -12 -12 -13 -14 -15 -15 -15 -15 -16
-18 -16 -15 -14 -13 -12 -12 -12 -12 -12 -12 -12 -12 -12 -12 -12 -12 -13 -13 -14 -14 -14 -15 -15 -15 -16 -16
-27 -25 -21 -16 -15 -15 -14 -14 -13 -13 -13 -13 -13 -13 -13 -13 -13 -13 -13 -13 -14 -14 -15 -14 -15 -16 -16
-20 -21 -24 -25 -23 -18 -16 -15 -15 -15 -15 -15 -14 -14 -15 -15 -15 -14 -14 -14 -14 -14 -14 -14 -14 -15 -16
Wind_Speed
37 34 43 44 41 40 39 43 41 38 38 36 29 23 25 22 23 22 20 18 17 16 15 15 14 14 14
32 34 33 39 39 40 43 43 41 40 38 35 31 26 27 27 25 21 19 18 18 18 16 16 15 14 13
28 29 38 34 37 36 38 42 38 38 37 34 31 29 28 26 24 22 21 21 21 19 17 17 15 14 14
25 27 28 35 34 38 35 35 35 34 33 34 32 30 28 27 25 24 23 23 21 19 18 17 16 16 16
16 20 23 25 31 34 34 33 30 29 30 30 30 29 28 28 26 25 24 22 21 20 19 18 18 18 18
13 15 17 18 19 24 29 35 34 35 32 30 28 28 28 28 27 26 25 24 22 20 19 19 18 18 19
8 8 10 13 16 21 30 34 36 34 36 36 34 32 30 29 29 27 26 23 21 20 19 19 20 20 21
6 9 10 11 12 13 18 27 30 31 28 29 33 32 30 29 28 27 25 24 22 21 21 21 21 23 24
7 9 10 10 10 11 15 17 22 23 27 27 27 28 29 30 30 28 26 24 24 23 23 23 24 25 26
12 9 8 12 14 13 14 18 21 22 27 26 26 25 27 32 29 27 26 26 26 26 26 26 25 27 30
11 12 14 16 13 16 18 18 19 22 17 26 31 30 28 21 22 25 26 27 28 29 28 27 29 29 30
8 11 12 13 16 18 21 23 24 25 24 27 29 28 30 30 32 31 30 30 29 28 28 29 32 33 33
14 12 11 12 14 16 20 23 21 21 26 32 34 30 27 28 29 29 27 29 28 29 31 31 31 31 32
6 6 15 13 14 14 17 20 23 27 26 23 21 21 22 24 25 28 29 30 30 29 27 25 24 26 28
19 15 13 10 11 14 15 17 19 21 21 21 20 21 23 24 25 27 27 28 28 28 27 30 31 31 32
15 19 20 16 15 18 17 13 13 14 14 17 19 22 25 28 30 30 31 31 28 26 26 29 32 32 31
16 15 15 17 21 23 20 20 22 24 25 24 22 21 22 25 24 20 20 21 20 21 21 24 28 30 30
Wind_Direction
206 198 199 200 199 200 201 202 204 212 211 217 230 225 221 215 211 209 211 212 214 217 219 221 223 230 239
232 222 213 206 200 202 199 200 205 212 219 224 228 225 221 218 218 214 215 216 217 216 216 220 224 236 247
237 232 228 221 213 211 206 204 205 211 221 226 227 226 223 218 219 217 214 217 217 218 219 222 227 233 239
234 232 226 222 224 226 223 217 216 218 222 227 225 222 224 221 217 217 216 219 220 222 224 229 233 239 249
231 232 231 228 225 227 228 231 231 230 229 229 226 223 222 222 220 219 220 222 222 223 229 239 247 253 256
233 239 237 235 230 226 224 224 224 230 231 232 230 230 228 227 224 222 223 221 225 233 239 245 251 257 263
222 238 248 243 242 232 228 227 227 228 232 233 231 228 227 225 224 221 222 229 236 241 246 250 257 261 265
267 254 244 238 244 251 241 235 231 233 235 237 234 233 231 229 226 228 232 237 240 244 251 257 260 263 266
306 285 270 257 249 245 246 243 240 240 240 242 243 237 231 227 225 231 237 240 247 250 254 258 262 264 267
261 268 274 272 263 247 234 239 238 236 239 239 241 235 230 232 233 237 242 247 251 253 255 257 259 261 263
261 260 257 257 256 261 261 249 236 236 235 233 235 233 234 242 242 247 250 250 252 255 257 259 261 261 264
283 264 258 262 254 247 247 255 251 245 240 242 249 249 251 253 253 255 258 261 264 265 263 261 261 262 263
280 284 278 263 256 256 247 242 241 241 245 246 249 251 251 250 254 258 257 258 264 269 270 267 267 265 263
284 315 272 276 271 264 261 262 258 253 246 243 240 234 236 243 252 260 264 267 273 274 273 270 263 257 257
277 282 278 280 272 266 267 265 265 266 264 261 258 254 253 255 258 262 265 269 272 274 272 271 269 267 266
295 284 275 268 262 263 263 256 249 245 244 248 250 252 255 257 258 263 268 271 272 271 268 266 267 268 270
281 285 291 282 267 264 263 267 270 270 270 271 267 266 271 271 266 262 258 255 260 263 264 264 270 272 272
Height
1510 1512 1518 1522 1528 1532 1536 1543 1546 1549 1553 1556 1561 1565 1569 1569 1573 1570 1573 1576 1579 1582 1584 1588 1588 1590 1592
1509 1512 1515 1519 1523 1530 1530 1536 1542 1544 1547 1552 1557 1560 1563 1567 1570 1566 1569 1573 1576 1578 1578 1583 1585 1587 1588
1504 1508 1512 1517 1520 1525 1527 1530 1535 1539 1542 1548 1553 1556 1558 1560 1562 1562 1562 1569 1571 1574 1576 1578 1580 1581 1583
1499 1504 1505 1509 1515 1521 1524 1528 1531 1534 1538 1543 1546 1549 1553 1554 1554 1558 1559 1565 1567 1569 1572 1575 1575 1577 1579
1497 1500 1500 1503 1507 1512 1517 1525 1528 1533 1535 1540 1542 1544 1547 1550 1551 1553 1557 1559 1562 1564 1566 1569 1570 1572 1573
1495 1498 1497 1502 1506 1508 1511 1516 1522 1529 1533 1535 1538 1540 1543 1546 1548 1549 1552 1554 1556 1559 1560 1563 1565 1566 1567
1491 1495 1496 1499 1503 1505 1509 1512 1513 1519 1525 1529 1532 1534 1539 1541 1543 1543 1546 1550 1553 1554 1556 1557 1560 1560 1563
1490 1494 1495 1496 1499 1502 1508 1509 1510 1515 1519 1523 1528 1528 1533 1536 1537 1540 1542 1545 1547 1549 1550 1553 1553 1554 1555
1491 1492 1494 1495 1497 1497 1501 1504 1506 1511 1514 1518 1522 1524 1528 1531 1533 1534 1537 1540 1542 1543 1543 1546 1546 1547 1546
1491 1492 1492 1494 1495 1496 1498 1500 1502 1505 1510 1514 1516 1520 1524 1526 1528 1530 1531 1533 1535 1535 1536 1538 1538 1538 1538
1488 1489 1490 1494 1494 1494 1494 1496 1498 1502 1506 1510 1512 1514 1517 1519 1520 1523 1524 1526 1528 1528 1527 1529 1530 1531 1530
1485 1486 1487 1489 1490 1493 1493 1493 1496 1499 1503 1504 1506 1508 1510 1511 1512 1514 1516 1517 1518 1519 1520 1521 1522 1523 1522
1482 1483 1483 1484 1485 1487 1489 1490 1492 1494 1495 1495 1498 1499 1501 1502 1502 1504 1508 1509 1510 1511 1512 1511 1511 1512 1512
1478 1479 1480 1482 1482 1483 1484 1485 1486 1488 1490 1490 1491 1491 1493 1494 1496 1497 1500 1501 1501 1503 1503 1503 1502 1503 1503
1475 1476 1477 1479 1478 1479 1480 1481 1482 1482 1483 1483 1484 1485 1486 1487 1488 1490 1491 1491 1492 1495 1495 1493 1493 1494 1494
1471 1472 1473 1474 1474 1475 1476 1476 1477 1476 1477 1478 1479 1479 1480 1481 1482 1482 1483 1484 1484 1484 1484 1484 1483 1485 1483
1469 1469 1469 1469 1469 1471 1472 1472 1470 1472 1473 1473 1474 1474 1474 1473 1476 1477 1477 1477 1477 1477 1477 1477 1476 1476 1475